SBONWEB Weather Reports


time (UTC)temp
F
wind
direction
speed
knots
gust
knots
rain 1hr
in
rain 24hr
in
rain mn
in
humidity
%
barometer
mb
20260504193603 59 0 0.0 0.0 0.00 0.00 0.00 72 1016.4
20260504192703 59 0 0.0 0.0 0.00 0.00 0.00 70 1016.2
20260504192017 59 0 0.0 0.0 0.00 0.00 0.00 70 1016.3
20260504190908 60 180 0.9 1.7 0.00 0.00 0.00 67 1016.1
20260504190003 61 180 0.9 1.7 0.00 0.00 0.00 66 1016.2
20260504185403 61 180 0.9 1.7 0.00 0.00 0.00 65 1016.1
20260504184503 62 180 0.0 0.9 0.00 0.00 0.00 65 1016.1
20260504183603 63 180 0.0 0.9 0.00 0.00 0.00 63 1016.0
20260504182917 63 180 0.0 0.9 0.00 0.00 0.00 62 1016.0
20260504181803 64 179 0.0 1.7 0.00 0.00 0.00 62 1016.0
20260504180903 64 179 0.0 0.9 0.00 0.00 0.00 61 1016.0
20260504180003 64 0 0.0 0.0 0.00 0.00 0.00 61 1016.1
20260504175403 65 0 0.0 0.0 0.00 0.00 0.00 62 1016.0
20260504174503 65 179 0.0 0.9 0.00 0.00 0.00 59 1016.0
20260504173604 66 179 0.9 1.7 0.00 0.00 0.00 56 1016.0
20260504172703 66 170 0.9 2.6 0.00 0.00 0.00 51 1016.0
20260504171803 66 176 0.9 2.6 0.00 0.00 0.00 49 1016.0
20260504171117 66 170 0.9 2.6 0.00 0.00 0.00 50 1016.0
20260504170217 66 148 1.7 3.5 0.00 0.00 0.00 50 1016.0
20260504150903 68 151 2.6 6.1 0.00 0.00 0.00 47 1016.6
20260504140903 68 176 3.5 7.0 0.00 0.00 0.00 49 1017.0
20260504130217 67 124 2.6 6.1 0.00 0.00 0.00 46 1017.7
20260504100218 65 172 1.7 5.2 0.00 0.00 0.00 48 1018.6
20260504081803 63 158 1.7 3.5 0.00 0.00 0.00 47 1018.4
20260504080903 63 131 0.9 3.5 0.00 0.00 0.00 47 1018.4
20260504080217 63 100 0.9 1.7 0.00 0.00 0.00 46 1018.4
20260504050004 53 360 0.9 1.7 0.00 0.00 0.00 71 1017.3
20260504045403 53 360 0.9 1.7 0.00 0.00 0.00 70 1017.2
20260504044504 52 359 0.9 2.6 0.00 0.00 0.00 71 1017.2
20260504043604 52 360 0.9 1.7 0.00 0.00 0.00 71 1017.1
20260504042703 52 360 0.9 2.6 0.00 0.00 0.00 71 1016.9
20260504041804 51 360 0.0 2.6 0.00 0.00 0.00 71 1017.1
20260504040903 51 0 0.0 0.0 0.00 0.00 0.00 72 1017.1
20260504040004 51 0 0.0 0.0 0.00 0.00 0.00 71 1017.1
20260504035403 51 0 0.0 0.0 0.00 0.00 0.00 70 1017.0
20260504034503 52 0 0.0 0.0 0.00 0.00 0.00 70 1017.1
20260504033603 52 0 0.0 0.0 0.00 0.00 0.00 68 1017.1
20260504032703 53 0 0.0 0.0 0.00 0.00 0.00 68 1016.9
20260504032017 52 0 0.0 0.0 0.00 0.00 0.00 68 1016.9
20260504030904 52 0 0.0 0.0 0.00 0.00 0.00 68 1017.1
20260504030003 52 0 0.0 0.0 0.00 0.00 0.00 69 1017.0
20260504025403 52 0 0.0 0.0 0.00 0.00 0.00 68 1017.1
20260504024504 52 0 0.0 0.0 0.00 0.00 0.00 67 1017.2
20260504023603 52 0 0.0 0.0 0.00 0.00 0.00 67 1017.2
20260504022703 52 0 0.0 0.0 0.00 0.00 0.00 68 1017.2
20260504021803 52 0 0.0 0.0 0.00 0.00 0.00 67 1017.2
20260504020903 53 0 0.0 0.0 0.00 0.00 0.00 68 1017.1
20260504020003 53 0 0.0 0.0 0.00 0.00 0.00 67 1017.1
20260504015403 54 0 0.0 0.0 0.00 0.00 0.00 67 1017.2
20260504014503 54 0 0.0 0.0 0.00 0.00 0.00 67 1017.2
20260504013603 55 0 0.0 0.0 0.00 0.00 0.00 66 1017.3
20260504012703 55 0 0.0 0.0 0.00 0.00 0.00 59 1017.2
20260504011803 56 0 0.0 0.0 0.00 0.00 0.00 61 1017.2
20260504010903 56 0 0.0 0.0 0.00 0.00 0.00 63 1017.2
20260504010003 56 0 0.0 0.0 0.00 0.00 0.00 63 1017.3
20260504005403 57 0 0.0 0.0 0.00 0.00 0.00 64 1017.2
20260504004503 57 0 0.0 0.0 0.00 0.00 0.00 64 1017.3
20260504003603 57 0 0.0 0.0 0.00 0.00 0.00 66 1017.4
20260504002703 56 0 0.0 0.0 0.00 0.00 0.00 65 1017.5
20260504001803 56 217 0.0 2.6 0.00 0.00 0.00 68 1017.6
20260504000903 56 222 0.0 0.9 0.00 0.00 0.00 68 1017.7
20260504000003 57 0 0.0 0.0 0.00 0.00 0.00 69 1017.7
20260503235618 57 0 0.0 0.0 0.00 0.00 0.00 69 1017.7
20260503234503 57 0 0.0 0.0 0.00 0.00 0.00 69 1017.9
20260503233603 57 0 0.0 0.0 0.00 0.00 0.00 69 1018.0
20260503232703 57 0 0.0 0.0 0.00 0.00 0.00 69 1018.0
20260503231803 57 0 0.0 0.0 0.00 0.00 0.00 69 1018.0
20260503230903 57 0 0.0 0.0 0.00 0.00 0.00 69 1018.1
20260503230003 57 0 0.0 0.0 0.00 0.00 0.00 70 1018.2
20260503225403 57 0 0.0 0.0 0.00 0.00 0.00 71 1018.1
20260503224503 56 204 0.0 0.9 0.00 0.00 0.00 71 1018.2
20260503223603 56 203 0.0 3.5 0.00 0.00 0.00 70 1018.2
20260503222918 56 209 0.0 0.9 0.00 0.00 0.00 70 1018.2
20260503221803 57 209 0.0 0.9 0.00 0.00 0.00 68 1018.2
20260503220903 58 209 0.9 0.9 0.00 0.00 0.00 67 1018.1
20260503220218 58 205 0.9 2.6 0.00 0.00 0.00 66 1018.0
20260503215403 58 194 0.9 2.6 0.00 0.00 0.00 65 1018.1
20260503214503 58 190 0.9 1.7 0.00 0.00 0.00 65 1018.1
20260503213603 59 181 0.9 2.6 0.00 0.00 0.00 65 1018.0
20260503212703 59 201 0.9 1.7 0.00 0.00 0.00 64 1017.9
20260503210903 59 184 0.9 2.6 0.00 0.00 0.00 62 1017.9
20260503210003 59 187 0.9 3.5 0.00 0.00 0.00 62 1017.9
20260503205403 59 188 0.9 3.5 0.00 0.00 0.00 62 1017.9
20260503204719 59 183 0.9 2.6 0.00 0.00 0.00 61 1017.9
20260503203603 59 162 0.0 3.5 0.00 0.00 0.00 61 1017.9
20260503202703 59 154 0.0 1.7 0.00 0.00 0.00 61 1017.9
20260503201804 60 0 0.0 0.0 0.00 0.00 0.00 61 1017.7
20260503200903 59 0 0.0 0.0 0.00 0.00 0.00 59 1017.7
20260503200003 59 176 0.9 0.9 0.00 0.00 0.00 62 1017.7
20260503195403 59 176 0.9 1.7 0.00 0.00 0.00 65 1017.7
20260503194504 59 176 0.0 1.7 0.00 0.00 0.00 65 1017.6